Regional Weather Roundup
Issued by NWS

Home | Current Version | Previous Version | Text Only | Print | Product List | Glossary Off
Versions: 1 2 3 4 5 6 7 8 9 10 11 12 13 14 15 16 17 18 19 20 21 22 23 24 25 26 27 28 29 30 31 32 33 34 35 36 37 38 39 40 41 42 43 44 45 46 47 48 49 50

000
ASUS43 KFSD 041402
RWRSD

WEATHER ROUNDUP FOR SOUTH DAKOTA
NATIONAL WEATHER SERVICE SIOUX FALLS SD
900 AM CDT TUE AUG 04 2015

NOTE: "FAIR" INDICATES FEW OR NO CLOUDS BELOW 12,000 FEET WITH NO
SIGNIFICANT WEATHER AND/OR OBSTRUCTIONS TO VISIBILITY.


SDZ001>005-009-010-012>017-041500-
NORTHWEST AND NORTH CENTRAL SOUTH DAKOTA

CITY           SKY/WX    TMP DP  RH WIND       PRES   REMARKS
FAITH            N/A     69  57  65 SE12      29.97R
MOBRIDGE       MOSUNNY   68  59  73 E9        29.95S
$$

SDZ012>016-024>037-041>051-057-063-072>074-041500-
SOUTHWEST AND SOUTH CENTRAL SOUTH DAKOTA

CITY           SKY/WX    TMP DP  RH WIND       PRES   REMARKS
RAPID CTY ARPT PTSUNNY   67  60  78 S5        29.98R
PIERRE         CLOUDY    68  62  81 S10       29.95R
CUSTER         CLOUDY    59  56  89 E5        30.07S FOG
ELLSWORTH AFB  PTSUNNY   68  61  77 S8        29.97R
PHILIP         CLOUDY    68  61  78 E7        29.94R
PINE RIDGE     PTSUNNY   69  62  78 SE28G37   29.97S
WINNER         FAIR      67  62  84 MISG      29.93F
$$

SDZ004>011-016>023-039-040-041500-
NORTHEAST SOUTH DAKOTA

CITY           SKY/WX    TMP DP  RH WIND       PRES   REMARKS
ABERDEEN       PTSUNNY   65  55  70 E7        30.01F
WATERTOWN      PTSUNNY   66  53  63 SE6       30.04S
BROOKINGS      CLOUDY    63  54  72 SE5       30.06S
$$

SDZ017-020-022-023-036>040-048>070-041500-
SOUTHEAST SOUTH DAKOTA

CITY           SKY/WX    TMP DP  RH WIND       PRES   REMARKS
SIOUX FALLS    CLOUDY    66  59  78 E3        30.05R
HURON          CLOUDY    63  57  81 SE10      29.99F
CHAMBERLAIN    CLOUDY    64  63  94 E7        29.95F
MITCHELL       CLOUDY    66  62  87 E6        30.01S
YANKTON        CLOUDY    66  63  88 SE3       30.02R
$$

ABBREVIATIONS USED IN REMARKS
   TC - TEMPERATURE IN CELSIUS
  WCI - WIND CHILL INDEX
   HX - HEAT INDEX
  VSB - VISIBILITY




USA.gov is the U.S. government's official web portal to all federal, state and local government web resources and services.